NOAA 16 DEB, 41077

Orbit data source: Space-Track

NOAA 16 DEB, 41077 is space debris in SSO originally from a launch on Thu, 21 Sep 2000 UTC launched from the Air Force Western Test Range (AFWTR). Debris objects in space refer to the collection of defunct objects orbiting the Earth. Examples of debris include non-operational satellites, rocket bodies, and fragments generated from explosions, collisions, or faulty payload assembly.

Loading next visibility...
Identifier
41077, 2000-055AL
Orbit
SSO
Country
Flag of USUS
Related business
Manufacturer
Unknown
Mission
Spacecraft
Bus & Motor
Unknown
Mass
Unknown
Launch date (UTC)
2000-09-21 (26 years ago)
Launch vehicle
Unknown
Launch site
Air Force Western Test Range (AFWTR)
Object type
Payload
Rocket body
Debris
Shape & HBR
Unknown shape, 0.1 m
Radar Cross Section
Medium (>0.1 m² and <1 m²)

Expand to show TLE details & history
Last TLE update: 7 hours ago

TLE from 7 hours ago
0 NOAA 16 DEB
1 41077U 00055AL  26254.55664278  .00000194  00000-0  16969-3 0  9999
2 41077  98.8079 262.2023 0111976 309.0187  50.1047 13.93981990548277
Epoch: 2026-09-11T13:21Z
TLE epoch observation values (Epoch: 2026-09-11T13:21:33.936Z)
Latitude
0.00003°
Longitude
71.2326°
Altitude
865.743 km
Speed
7.446 km/s
True Right ascension
17h 28m 48s
True Declination
0° 00' 00"
Sunlit
Object was in daylight at epoch
Visualization orbit readout
Latitude
Unknown
Longitude
Unknown
Altitude
Unknown
Speed
Unknown
Apparent Right ascension
Unknown
Apparent Declination
Unknown
Sunlit
N/A
Visualization observer readout
Local Sidereal Time
12:25:38
Azimuth
Unknown
Elevation
Unknown
Doppler factor
Unknown
Orbital elements
Apogee altitude
993.538 km
Perigee altitude
830.276 km
Semi-major axis
7,290.044 km
Eccentricity
0.0112
Inclination
98.8079°
RAAN
262.2023°
Arg. of periapsis
309.0187°
True anomaly
51.09802°
Mean anomaly
50.1047°
Eccentric anomaly
50.60047°
Mean motion
3.48697 °/min
Orbital period
103.24 mins
BSTAR
0.00016969
Loading maneuver chart data...
Computing Atmospheric mass density...
Loading historical data...
Loading historical data...
Loading historical data...
Loading historical data...
Loading historical data...
Loading historical data...
Loading historical data...

Documentation

Showing up to 5 results
|